This is the latest recevied weather packets stored in our database for station/object K7KAR-2. If no packets are shown the sender has not sent any weather packets the latest 10 day(s).
| Time | Temp. | Humidity | Pressure | Rain* | Wind** | Luminosity | Snow |
|---|---|---|---|---|---|---|---|
| 1778288710 | 21.67° C | 10% | 1007.6 hPa | 0 mm | - | 73 W/m² | - |
| 1778288405 | 21.67° C | 10% | 1007.6 hPa | 0 mm | - | 76 W/m² | - |
| 1778288104 | 21.67° C | 10% | 1007.8 hPa | 0 mm | - | 78 W/m² | - |
| 1778287798 | 21.67° C | 10% | 1007.8 hPa | 0 mm | - | 85 W/m² | - |
| 1778287495 | 21.67° C | 10% | 1007.5 hPa | 0 mm | - | 93 W/m² | - |
| 1778287193 | 21.67° C | 10% | 1007.5 hPa | 0 mm | - | 101 W/m² | - |
| 1778286891 | 21.67° C | 10% | 1007.7 hPa | 0 mm | - | 104 W/m² | - |
| 1778286587 | 22.22° C | 10% | 1007.9 hPa | 0 mm | - | 110 W/m² | - |
| 1778286285 | 22.22° C | 10% | 1007.9 hPa | 0 mm | - | 124 W/m² | - |
| 1778285982 | 22.22° C | 10% | 1008.1 hPa | 0 mm | - | 126 W/m² | - |
| 1778285678 | 22.22° C | 10% | 1007.8 hPa | 0 mm | - | 132 W/m² | - |
| 1778285375 | 22.22° C | 10% | 1007.9 hPa | 0 mm | - | 142 W/m² | - |
| 1778285074 | 22.22° C | 10% | 1007.9 hPa | 0 mm | - | 141 W/m² | - |
| 1778284769 | 22.22° C | 10% | 1008.2 hPa | 0 mm | - | 138 W/m² | - |
| 1778284467 | 22.22° C | 10% | 1008.2 hPa | 0 mm | - | 154 W/m² | - |
| 1778284163 | 22.22° C | 10% | 1007.9 hPa | 0 mm | - | 162 W/m² | - |
| 1778283861 | 22.22° C | 10% | 1007.8 hPa | 0 mm | - | 163 W/m² | - |
| 1778283558 | 22.22° C | 10% | 1008.1 hPa | 0 mm | - | 184 W/m² | - |
| 1778283258 | 22.78° C | 10% | 1008.2 hPa | 0 mm | - | 205 W/m² | - |
| 1778282954 | 22.22° C | 10% | 1008.1 hPa | 0 mm | - | 231 W/m² | - |
| 1778282651 | 22.22° C | 10% | 1008.1 hPa | 0 mm | - | 205 W/m² | - |
| 1778282348 | 22.22° C | 10% | 1008.1 hPa | 0 mm | - | 160 W/m² | - |
| 1778282045 | 22.78° C | 10% | 1008.1 hPa | 0 mm | - | 203 W/m² | - |
| 1778281742 | 22.78° C | 10% | 1007.9 hPa | 0 mm | - | 186 W/m² | - |
| 1778281439 | 22.78° C | 10% | 1008.1 hPa | 0 mm | - | 204 W/m² | - |
* Rain latest hour (hover to see other rain measurements)
** Current wind speed in m/s (hover to see current wind gust speed)